Le nostre stazioni meteo in Italia

Pubblicità
Il mio iltempo24.it
Lamezia Terme, Italia (16362): Temperatura & dewpoint: 09.09.2019 21:00:00 - 15.09.2019 21:00:00 (CEST)Lamezia Terme, Italia (16362): velocità del vento: 09.09.2019 21:00:00 - 15.09.2019 21:00:00 (CEST)Lamezia Terme, Italia (16362): direzione del vento: 09.09.2019 21:00:00 - 15.09.2019 21:00:00 (CEST)Lamezia Terme, Italia (16362): reduced air pressure: 09.09.2019 21:00:00 - 15.09.2019 21:00:00 (CEST)Lamezia Terme, Italia (16362): visibility: 09.09.2019 21:00:00 - 15.09.2019 21:00:00 (CEST)Lamezia Terme, Italia (16362): precipitazioni: 09.09.2019 21:00:00 - 15.09.2019 21:00:00 (CEST)
Data & Tempo tt [°C] td [°C] ff [km/h] ff [kn] dd ppp [hPa] vv [km] rr [mm]
15.09.2019 21:00:00 - - - - - - - -
15.09.2019 20:00:00 23,0 19,0 2 1 - - 10 -
15.09.2019 19:00:00 26,0 19,0 9 5 OSO - 10 -
15.09.2019 18:00:00 27,0 19,0 13 7 OSO - 10 -
15.09.2019 17:00:00 27,0 19,0 15 8 OSO - 10 -
15.09.2019 16:00:00 28,0 17,0 18 10 OSO - 10 -
15.09.2019 15:00:00 28,0 19,0 18 10 OSO - 10 -
15.09.2019 14:00:00 27,2 20,5 18 10 OSO 1022,8 10 -
15.09.2019 13:00:00 27,0 20,0 15 8 OSO - 10 -
15.09.2019 12:00:00 27,0 20,0 13 7 SO - 10 -
15.09.2019 11:00:00 26,4 19,8 13 7 SO 1024,2 10 0,0
15.09.2019 10:00:00 25,0 19,0 9 5 SO - 10 -
15.09.2019 09:00:00 23,0 18,0 2 1 - - 10 -
15.09.2019 08:00:00 18,7 16,5 5 3 E 1023,3 10 -
15.09.2019 07:00:00 16,0 15,0 13 7 E - 10 -
15.09.2019 06:00:00 17,0 15,0 13 7 E - 10 -
15.09.2019 05:00:00 16,8 15,7 8 4 ENE 1022,8 10 0,0
15.09.2019 04:00:00 18,0 16,0 15 8 ENE - 10 -
15.09.2019 03:00:00 17,0 16,0 11 6 E - 10 -
15.09.2019 02:00:00 17,1 16,3 9 5 E 1023,1 10 -
15.09.2019 01:00:00 18,0 17,0 8 4 E - 10 -
15.09.2019 00:00:00 19,0 17,0 5 3 E - 10 -
14.09.2019 23:00:00 20,5 17,2 4 2 N 1023,5 10 0,0
14.09.2019 22:00:00 22,0 16,0 4 2 - - 10 -
14.09.2019 21:00:00 25,0 18,0 9 5 OSO - 10 -
14.09.2019 20:00:00 25,2 17,6 13 7 OSO 1022,7 10 -
14.09.2019 19:00:00 26,0 17,0 18 10 O - 10 -
14.09.2019 18:00:00 27,0 16,0 15 8 SO - 10 -
14.09.2019 17:00:00 27,5 17,0 21 11 OSO 1022,8 10 0,0
14.09.2019 16:00:00 28,0 17,0 16 9 SO - 10 -
14.09.2019 15:00:00 28,0 16,0 21 11 OSO - 10 -
14.09.2019 14:00:00 27,9 15,4 22 12 O 1023,6 10 -
14.09.2019 13:00:00 - - - - - - - -
14.09.2019 12:00:00 27,0 14,0 15 8 OSO - 10 -
14.09.2019 11:00:00 26,6 18,4 13 7 OSO 1024,4 10 0,0
14.09.2019 10:00:00 26,0 19,0 9 5 OSO - 10 -
14.09.2019 09:00:00 22,0 15,0 5 3 E - 10 -
14.09.2019 08:00:00 17,5 14,0 11 6 E 1024,2 10 -
14.09.2019 07:00:00 14,0 12,0 11 6 E - 10 -
14.09.2019 06:00:00 15,0 12,0 11 6 E - 10 -
14.09.2019 05:00:00 14,8 12,5 9 5 E 1023,6 10 0,0
14.09.2019 04:00:00 16,0 14,0 15 8 E - 10 -
14.09.2019 03:00:00 17,0 16,0 9 5 ENE - 10 -
14.09.2019 02:00:00 18,3 16,5 9 5 E 1024,4 10 -
14.09.2019 01:00:00 18,0 17,0 13 7 ENE - 10 -
14.09.2019 00:00:00 20,0 17,0 8 4 ENE - 10 -
13.09.2019 23:00:00 20,3 17,7 9 5 E 1024,9 15 0,0
13.09.2019 22:00:00 23,0 19,0 5 3 NE - 10 -
13.09.2019 21:00:00 24,0 20,0 2 1 - - 10 -
13.09.2019 20:00:00 25,2 19,4 0 0 N 1023,8 15 -
13.09.2019 19:00:00 26,0 20,0 16 9 SSO - 10 -
13.09.2019 18:00:00 27,0 20,0 16 9 OSO - 10 -
13.09.2019 17:00:00 27,7 19,7 16 9 SO 1023,3 15 0,0
13.09.2019 16:00:00 28,0 20,0 18 10 SO - 10 -
13.09.2019 15:00:00 28,0 20,0 22 12 OSO - 10 -
13.09.2019 14:00:00 29,0 18,0 24 13 OSO - 10 -
13.09.2019 13:00:00 28,0 19,0 24 13 OSO - 10 -
13.09.2019 12:00:00 29,0 15,0 18 10 O - 10 -
13.09.2019 11:00:00 28,2 15,5 15 8 OSO 1025,0 10 0,0
13.09.2019 10:00:00 26,0 19,0 11 6 SO - 10 -
13.09.2019 09:00:00 23,0 17,0 8 4 ESE - 10 -
13.09.2019 08:00:00 18,9 16,6 8 4 E 1025,1 10 -
13.09.2019 07:00:00 16,0 15,0 9 5 E - 10 -
13.09.2019 06:00:00 17,0 16,0 9 5 E - 10 -
13.09.2019 05:00:00 17,1 16,3 5 3 ENE 1024,5 10 0,0
13.09.2019 04:00:00 18,0 17,0 5 3 ENE - 10 -
13.09.2019 03:00:00 18,0 17,0 9 5 ENE - 10 -
13.09.2019 02:00:00 18,5 17,5 9 5 E 1024,6 10 -
13.09.2019 01:00:00 20,0 18,0 8 4 ENE - 10 -
13.09.2019 00:00:00 21,0 18,0 5 3 E - 10 -
12.09.2019 23:00:00 21,4 18,6 2 1 NE 1024,6 10 0,0
12.09.2019 22:00:00 23,0 18,0 5 3 ONO - 10 -
12.09.2019 21:00:00 25,0 18,0 13 7 ONO - 10 -
12.09.2019 20:00:00 25,6 20,0 21 11 O 1023,7 10 -
12.09.2019 19:00:00 - - - - - - - -
12.09.2019 18:00:00 27,0 21,0 28 15 O - 10 -
12.09.2019 17:00:00 27,8 20,5 26 14 O 1023,4 10 0,0
12.09.2019 16:00:00 28,0 21,0 28 15 O - 10 -
12.09.2019 15:00:00 28,0 20,0 22 12 OSO - 10 -
12.09.2019 14:00:00 28,4 19,0 18 10 OSO 1024,1 15 -
12.09.2019 13:00:00 - - - - - - - -
12.09.2019 12:00:00 - - - - - - - -
12.09.2019 11:00:00 26,8 20,7 16 9 SO 1024,2 15 0,0
12.09.2019 10:00:00 26,0 19,0 11 6 SO - 10 -
12.09.2019 09:00:00 24,0 17,0 4 2 - - 10 -
12.09.2019 08:00:00 19,9 16,6 5 3 E 1023,2 20 -
12.09.2019 07:00:00 17,0 15,0 11 6 E - 10 -
12.09.2019 06:00:00 18,0 15,0 8 4 NE - 10 -
12.09.2019 05:00:00 17,1 15,4 11 6 E 1021,8 10 0,0
12.09.2019 04:00:00 18,0 16,0 8 4 ENE - 10 -
12.09.2019 03:00:00 18,0 16,0 13 7 E - 10 -
12.09.2019 02:00:00 19,8 16,6 4 2 ENE 1021,1 10 -
12.09.2019 01:00:00 21,0 17,0 11 6 NE - 10 -
12.09.2019 00:00:00 20,0 18,0 11 6 ENE - 10 -
11.09.2019 23:00:00 21,5 18,9 8 4 E 1020,6 10 0,0
11.09.2019 22:00:00 23,0 20,0 4 2 - - 10 -
11.09.2019 21:00:00 - - - - - - - -
11.09.2019 20:00:00 24,8 19,5 8 4 S 1018,6 10 -
11.09.2019 19:00:00 27,0 19,0 15 8 O - 10 -
11.09.2019 18:00:00 28,0 18,0 22 12 O - 10 -
11.09.2019 17:00:00 28,1 17,4 22 12 O 1017,4 10 0,0
11.09.2019 16:00:00 29,0 17,0 26 14 O - 10 -
11.09.2019 15:00:00 30,0 16,0 24 13 O - 10 -
11.09.2019 14:00:00 29,2 16,9 21 11 O 1016,6 10 -
11.09.2019 13:00:00 29,0 16,0 21 11 O - 10 -
11.09.2019 12:00:00 28,0 18,0 11 6 - - 10 -
11.09.2019 11:00:00 28,8 15,8 8 4 N 1016,2 15 0,0
11.09.2019 10:00:00 27,0 17,0 11 6 ENE - 10 -
11.09.2019 09:00:00 25,0 18,0 15 8 NE - 10 -
11.09.2019 08:00:00 23,3 18,1 18 10 NE 1014,6 10 -
11.09.2019 07:00:00 22,0 19,0 16 9 NE - 10 -
11.09.2019 06:00:00 22,0 18,0 24 13 ENE - 10 -
11.09.2019 05:00:00 22,5 18,2 22 12 ENE 1014,1 10 0,0
11.09.2019 04:00:00 22,0 18,0 9 5 ENE - 10 -
11.09.2019 03:00:00 23,0 18,0 9 5 NE - 10 -
11.09.2019 02:00:00 23,6 18,2 8 4 NE 1013,9 - -
11.09.2019 01:00:00 24,0 18,0 5 3 ENE - 10 -
11.09.2019 00:00:00 24,0 17,0 16 9 ENE - 10 -
10.09.2019 23:00:00 23,5 17,0 9 5 ENE 1013,8 10 0,0
10.09.2019 22:00:00 24,0 17,0 13 7 ENE - 10 -
10.09.2019 21:00:00 24,0 17,0 13 7 ENE - 10 -
10.09.2019 20:00:00 23,9 16,4 13 7 ENE 1012,8 15 -
10.09.2019 19:00:00 26,0 14,0 21 11 ENE - 10 -
10.09.2019 18:00:00 26,0 16,0 5 3 ESE - 10 -
10.09.2019 17:00:00 27,1 15,7 8 4 SO 1012,4 10 0,0
10.09.2019 16:00:00 28,0 16,0 16 9 O - 10 -
10.09.2019 15:00:00 29,0 15,0 16 9 O - 10 -
10.09.2019 14:00:00 29,0 12,0 8 4 - - 10 -
10.09.2019 13:00:00 - - - - - - - -
10.09.2019 12:00:00 26,0 10,0 4 2 - - 10 -
10.09.2019 11:00:00 24,5 13,9 4 2 N 1015,6 15 0,0
10.09.2019 10:00:00 23,0 15,0 4 2 - - 10 -
10.09.2019 09:00:00 22,0 13,0 8 4 ENE - 10 -
10.09.2019 08:00:00 16,9 12,6 9 5 ENE 1015,5 15 -
10.09.2019 07:00:00 14,0 12,0 9 5 ENE - 10 -
10.09.2019 06:00:00 13,0 11,0 11 6 E - 10 -
10.09.2019 05:00:00 15,0 13,0 8 4 ENE - 10 -
10.09.2019 04:00:00 16,0 15,0 8 4 S - 10 -
10.09.2019 03:00:00 17,0 14,0 4 2 - - 10 -
10.09.2019 02:00:00 19,4 14,1 9 5 ONO 1016,1 10 -
10.09.2019 01:00:00 22,0 15,0 15 8 OSO - 10 -
10.09.2019 00:00:00 22,0 15,0 15 8 O - 10 -
09.09.2019 23:00:00 22,3 16,0 15 8 O 1016,6 10 0,0
09.09.2019 22:00:00 23,0 17,0 16 9 O - 10 -
09.09.2019 21:00:00 24,0 19,0 15 8 O - 10 -

tt = Temperatura
td = dewpoint
ff = velocità del vento
dd = direzione del vento
ppp = reduced air pressure
vv = visibility
rr = precipitazioni

Stazioni seguenti

WeatherPro
AMSI
MeteoEarth